Regional Weather Roundup
Issued by NWS

Home | Current Version | Previous Version | Text Only | Print | Product List | Glossary On
Versions: 1 2 3 4 5 6 7 8 9 10 11 12 13 14 15 16 17 18 19 20 21 22 23 24 25 26 27 28 29 30 31 32 33 34 35 36 37 38 39 40 41 42 43 44 45 46 47 48 49 50
000
ASUS43 KDMX 301807
RWRIA

WEATHER ROUNDUP FOR IOWA
NATIONAL WEATHER SERVICE DES MOINES IA
100 PM CDT SAT AUG 30 2014

NOTE: "FAIR" INDICATES FEW OR NO CLOUDS BELOW 12,000 FEET WITH NO
SIGNIFICANT WEATHER AND/OR OBSTRUCTIONS TO VISIBILITY.

* - THESE STATIONS ARE NOT NWS STATIONS...THUS NOT UNDER NWS
QUALITY CONTROL.  THEY ALSO DO NOT REPORT WEATHER SUCH
AS PRECIPITATION OR FOG.

IAZ001>003-012>014-020>022-031>034-043>046-301900-
   NORTHWEST IOWA

CITY           SKY/WX    TMP DP  RH WIND       PRES   REMARKS
CARROLL *      CLOUDY    72  66  83 NW5       29.92F
CHEROKEE *     CLOUDY    68  65  92 SW6       29.93F
DENISON *      MOSUNNY   72  66  83 W8G15     29.92S
LE MARS *      PTSUNNY   72  63  73 W8        29.94S
ORANGE CITY *  SUNNY     72  61  68 W8        29.93S
SHELDON *      PTSUNNY   73  68  83 VRB7G15   29.91S
SIOUX CITY     PTSUNNY   70  59  68 NW6       29.94F
6HR MIN TEMP:  64; 6HR MAX TEMP:  71;

SPENCER        MOSUNNY   75  64  68 VRB3      29.91S
6HR MIN TEMP:  65; 6HR MAX TEMP:  75;

STORM LAKE *   MOSUNNY   72  72 100 W12       29.93S
$$

IAZ055>058-069>071-079>083-090>094-301900-
   SOUTHWEST IOWA

CITY           SKY/WX    TMP DP  RH WIND       PRES   REMARKS
ATLANTIC *     CLOUDY    70  66  88 NW9       29.94S
AUDUBON *      PTSUNNY   72  68  88 W3        29.95S
CLARINDA *     PTSUNNY   79  70  73 VRB3      29.95S HX  81
COUNCIL BLFS * PTSUNNY   72  70  94 CALM      29.94S
CRESTON *      MOSUNNY   77  68  73 W6        29.94S
HARLAN  *      CLOUDY    70  66  88 W6G12     29.98S FOG
LAMONI         MOSUNNY   80  69  69 NW7       29.93S HX  83
6HR MIN TEMP:  65; 6HR MAX TEMP:  80;

RED OAK *      CLOUDY    72  68  88 VRB5G12   29.95R
SHENANDOAH *   MOSUNNY   79  70  73 VRB7      29.94S HX  81
$$

IAZ047>049-059>061-072>074-084-301900-
   CENTRAL IOWA

CITY           SKY/WX    TMP DP  RH WIND       PRES   REMARKS
AMES           PTSUNNY   76  68  76 W10       29.90S
6HR MIN TEMP:  66; 6HR MAX TEMP:  78;

ANKENY *       PTSUNNY   77  68  73 NW8       29.90S
CHARITON *     MOSUNNY   77  68  73 VRB6G12   29.92S
DES MOINES     PTSUNNY   79  69  71 NW9       29.90S HX  81
6HR MIN TEMP:  67; 6HR MAX TEMP:  80;

GRINNELL*      PTSUNNY   73  66  78 W5        29.91S
KNOXVILLE *    PTSUNNY   75  68  78 W7G14     29.90S
MARSHALLTOWN   PTSUNNY   76  68  76 NW10      29.89S
6HR MIN TEMP:  67; 6HR MAX TEMP:  76;

PELLA *        CLOUDY    76  68  75 W8        29.92S
PERRY *        CLOUDY    73  68  83 W6        29.92S
$$

IAZ004>006-015-016-023>025-035-036-301900-
   NORTH CENTRAL IOWA

CITY           SKY/WX    TMP DP  RH WIND       PRES   REMARKS
ALGONA *       CLOUDY    72  66  83 NW8       29.91S
CLARION *      CLOUDY    70  66  88 W7        29.91S
ESTHERVILLE    CLOUDY    70  64  81 N8        29.91S
6HR MIN TEMP:  65; 6HR MAX TEMP:  69;

FORT DODGE *   CLOUDY    72  64  78 W5        29.92S
MASON CITY     PTSUNNY   75  66  73 NW12      29.89S
6HR MIN TEMP:  67; 6HR MAX TEMP:  78;

FOREST CITY *  CLOUDY    73  68  83 NW12      29.89S
IOWA FALLS *   CLOUDY    72  65  79 W8        29.92R
$$

IAZ007>011-017>019-026>030-037>042-050>054-066-301900-
   NORTHEAST IOWA

CITY           SKY/WX    TMP DP  RH WIND       PRES   REMARKS
CEDAR RAPIDS   CLOUDY    75  68  78 W9        29.89R
6HR MIN TEMP:  67; 6HR MAX TEMP:  75;

CHARLES CITY * MOSUNNY   75  64  69 NW9       29.88S
CLINTON *      CLOUDY    79  68  69 W10G16    29.90R HX  81
DECORAH *      PTSUNNY   77  66  69 NW10G16   29.84S
DUBUQUE        PTSUNNY   75  67  76 W12       29.87R
6HR MIN TEMP:  66; 6HR MAX TEMP:  75; 6HR PCP:  0.02;

MONTICELLO *   CLOUDY    75  68  78 W8        29.88R
OELWEIN *      PTSUNNY   77  66  69 NW14G21   29.88R
WATERLOO       CLOUDY    76  66  71 W12       29.87S
6HR MIN TEMP:  67; 6HR MAX TEMP:  76;

$$

IAZ064-065-067-068-078-301900-
   EAST CENTRAL IOWA

CITY           SKY/WX    TMP DP  RH WIND       PRES   REMARKS
DAVENPORT      CLOUDY    78  68  71 W10       29.89S HX  80
6HR MIN TEMP:  69; 6HR MAX TEMP:  78;

IOWA CITY      CLOUDY    76  68  76 W8        29.90R
6HR MIN TEMP:  67; 6HR MAX TEMP:  76;

MT. PLEASANT * PTSUNNY   79  64  60 W8        29.91S HX  81
MUSCATINE *    PTSUNNY   79  68  69 W9        29.89S HX  81
QUAD CITIES    PTSUNNY   77  67  71 W9        29.88R
6HR MIN TEMP:  69; 6HR MAX TEMP:  80;

$$

IAZ062-063-075>077-085>089-095>099-301900-
   SOUTHEAST IOWA

CITY           SKY/WX    TMP DP  RH WIND       PRES   REMARKS
BURLINGTON     PTSUNNY   81  69  67 W6        29.90S HX  84
6HR MIN TEMP:  69; 6HR MAX TEMP:  81;

FAIRFIELD *    PTSUNNY   77  66  69 W10       29.91S
FORT MADISON * PTSUNNY   82  70  65 W5        29.91F HX  86
KEOKUK *       PTSUNNY   81  70  69 SW8       29.90F HX  84
OSKALOOSA *    CLOUDY    74  67  81 W7        29.92S
CENTERVILLE *  MOSUNNY   77  70  78 W6        29.94F
OTTUMWA        CLOUDY    74  66  76 W7        29.91F
6HR MIN TEMP:  65; 6HR MAX TEMP:  75;

WASHINGTON *   PTSUNNY   81  70  69 W9        29.90S HX  84
$$

ABBREVIATIONS USED IN REMARKS
   TC - TEMPERATURES IN CELSIUS
  WCI - WIND CHILL INDEX
   HX - HEAT INDEX
  VSB - VISIBILITY
$$




USA.gov is the U.S. government's official web portal to all federal, state and local government web resources and services.